Time,TemperatureF,DewpointF,PressureIn,WindDirection,WindDirectionDegrees,WindSpeedMPH,WindSpeedGustMPH,Humidity,HourlyPrecipIn,Conditions,Clouds,dailyrainin,SoftwareType,DateUTC
2013-09-14 00:01:00,64.0,52.9,29.90,NW,323,4.0,5.0,67,0.00,,,0.00,meteohub,2013-09-14 04:01:00,
2013-09-14 00:02:00,64.0,52.9,29.90,NW,322,3.0,5.0,67,0.00,,,0.00,meteohub,2013-09-14 04:02:00,
2013-09-14 00:06:00,64.0,52.9,29.90,NW,321,3.0,6.0,67,0.00,,,0.00,meteohub,2013-09-14 04:06:00,
2013-09-14 00:11:00,64.0,52.9,29.90,NW,320,4.0,6.0,67,0.00,,,0.00,meteohub,2013-09-14 04:11:00,
2013-09-14 00:16:00,63.9,53.1,29.91,NW,321,3.0,6.0,68,0.00,,,0.00,meteohub,2013-09-14 04:16:00,
2013-09-14 00:21:00,63.9,53.1,29.91,NW,319,2.0,5.0,68,0.00,,,0.00,meteohub,2013-09-14 04:21:00,
2013-09-14 00:26:00,63.7,52.5,29.91,NW,320,4.0,5.0,67,0.00,,,0.00,meteohub,2013-09-14 04:26:00,
2013-09-14 00:32:00,63.5,52.7,29.91,NW,321,4.0,5.0,68,0.00,,,0.00,meteohub,2013-09-14 04:32:00,
2013-09-14 00:37:00,63.3,52.5,29.91,NW,320,2.0,5.0,68,0.00,,,0.00,meteohub,2013-09-14 04:37:00,
2013-09-14 00:42:00,63.3,53.1,29.91,NW,319,2.0,4.0,69,0.00,,,0.00,meteohub,2013-09-14 04:42:00,
2013-09-14 00:47:00,63.1,52.9,29.91,NW,318,2.0,4.0,69,0.00,,,0.00,meteohub,2013-09-14 04:47:00,
2013-09-14 00:52:00,63.0,53.1,29.91,NW,318,2.0,4.0,70,0.00,,,0.00,meteohub,2013-09-14 04:52:00,
2013-09-14 00:57:00,62.8,52.9,29.91,NW,318,2.0,3.0,70,0.00,,,0.00,meteohub,2013-09-14 04:57:00,
2013-09-14 01:02:00,62.8,52.9,29.91,NW,318,1.0,3.0,70,0.00,,,0.00,meteohub,2013-09-14 05:02:00,
2013-09-14 01:07:00,62.4,52.5,29.91,NW,323,4.0,4.0,70,0.00,,,0.00,meteohub,2013-09-14 05:07:00,
2013-09-14 01:12:00,62.2,52.7,29.91,NW,317,3.0,4.0,71,0.00,,,0.00,meteohub,2013-09-14 05:12:00,
2013-09-14 01:17:00,62.2,52.3,29.91,NW,317,2.0,4.0,70,0.00,,,0.00,meteohub,2013-09-14 05:17:00,
2013-09-14 01:22:00,62.1,52.5,29.91,NW,316,3.0,4.0,71,0.00,,,0.00,meteohub,2013-09-14 05:22:00,
2013-09-14 01:27:00,62.1,52.9,29.92,NW,316,1.0,4.0,72,0.00,,,0.00,meteohub,2013-09-14 05:27:00,
2013-09-14 01:32:00,61.9,52.3,29.92,NW,316,4.0,4.0,71,0.00,,,0.00,meteohub,2013-09-14 05:32:00,
2013-09-14 01:37:00,61.7,52.5,29.92,NW,319,2.0,4.0,72,0.00,,,0.00,meteohub,2013-09-14 05:37:00,
2013-09-14 01:42:00,61.5,52.7,29.92,NW,319,3.0,4.0,73,0.00,,,0.00,meteohub,2013-09-14 05:42:00,
2013-09-14 01:47:00,61.5,52.7,29.92,NW,319,3.0,4.0,73,0.00,,,0.00,meteohub,2013-09-14 05:47:00,
2013-09-14 01:52:00,61.3,52.7,29.92,NW,319,3.0,4.0,73,0.00,,,0.00,meteohub,2013-09-14 05:52:00,
2013-09-14 01:57:00,61.3,52.7,29.93,NW,320,3.0,4.0,73,0.00,,,0.00,meteohub,2013-09-14 05:57:00,
2013-09-14 02:02:00,61.2,52.5,29.93,NW,321,2.0,4.0,73,0.00,,,0.00,meteohub,2013-09-14 06:02:00,
2013-09-14 02:07:00,61.2,52.9,29.93,NW,321,2.0,4.0,74,0.00,,,0.00,meteohub,2013-09-14 06:07:00,
2013-09-14 02:12:00,61.0,52.7,29.93,NW,321,2.0,4.0,74,0.00,,,0.00,meteohub,2013-09-14 06:12:00,
2013-09-14 02:17:00,60.6,52.7,29.93,NW,321,2.0,4.0,75,0.00,,,0.00,meteohub,2013-09-14 06:17:00,
2013-09-14 02:22:00,60.4,52.9,29.93,NW,321,2.0,3.0,76,0.00,,,0.00,meteohub,2013-09-14 06:22:00,
2013-09-14 02:27:00,60.3,52.7,29.93,NW,321,3.0,3.0,76,0.00,,,0.00,meteohub,2013-09-14 06:27:00,
2013-09-14 02:32:00,60.1,52.9,29.93,NW,321,2.0,4.0,77,0.00,,,0.00,meteohub,2013-09-14 06:32:00,
2013-09-14 02:37:00,59.9,52.7,29.93,NW,321,3.0,4.0,77,0.00,,,0.00,meteohub,2013-09-14 06:37:00,
2013-09-14 02:42:00,59.7,52.5,29.93,NW,321,1.0,4.0,77,0.00,,,0.00,meteohub,2013-09-14 06:42:00,
2013-09-14 02:47:00,59.5,52.7,29.93,NW,321,3.0,4.0,78,0.00,,,0.00,meteohub,2013-09-14 06:47:00,
2013-09-14 02:52:00,59.5,53.1,29.93,NW,321,2.0,4.0,79,0.00,,,0.00,meteohub,2013-09-14 06:52:00,
2013-09-14 02:57:00,59.4,52.9,29.93,NW,321,2.0,3.0,79,0.00,,,0.00,meteohub,2013-09-14 06:57:00,
2013-09-14 03:02:00,59.4,52.9,29.93,NW,321,1.0,3.0,79,0.00,,,0.00,meteohub,2013-09-14 07:02:00,
2013-09-14 03:07:00,59.2,53.1,29.93,NW,321,3.0,3.0,80,0.00,,,0.00,meteohub,2013-09-14 07:07:00,
2013-09-14 03:12:00,59.2,53.1,29.93,NW,321,1.0,3.0,80,0.00,,,0.00,meteohub,2013-09-14 07:12:00,
2013-09-14 03:17:00,59.2,53.1,29.93,NW,321,0.0,3.0,80,0.00,,,0.00,meteohub,2013-09-14 07:17:00,
2013-09-14 03:22:00,59.0,52.9,29.94,WNW,300,2.0,3.0,80,0.00,,,0.00,meteohub,2013-09-14 07:22:00,
2013-09-14 03:27:00,59.0,52.9,29.94,NW,315,1.0,3.0,80,0.00,,,0.00,meteohub,2013-09-14 07:27:00,
2013-09-14 03:32:00,59.0,52.9,29.94,NW,315,1.0,3.0,80,0.00,,,0.00,meteohub,2013-09-14 07:32:00,
2013-09-14 03:37:00,58.8,53.1,29.94,NW,315,0.0,3.0,81,0.00,,,0.00,meteohub,2013-09-14 07:37:00,
2013-09-14 03:42:00,58.8,52.7,29.94,NW,315,0.0,3.0,80,0.00,,,0.00,meteohub,2013-09-14 07:42:00,
2013-09-14 03:47:00,58.8,52.7,29.94,NW,315,1.0,3.0,80,0.00,,,0.00,meteohub,2013-09-14 07:47:00,
2013-09-14 03:52:00,58.8,52.7,29.94,WSW,258,1.0,3.0,80,0.00,,,0.00,meteohub,2013-09-14 07:52:00,
2013-09-14 03:57:00,58.8,53.1,29.94,NW,309,1.0,3.0,81,0.00,,,0.00,meteohub,2013-09-14 07:57:00,
2013-09-14 04:02:00,58.8,53.1,29.94,NW,310,1.0,3.0,81,0.00,,,0.00,meteohub,2013-09-14 08:02:00,
2013-09-14 04:07:00,58.6,52.9,29.94,NW,311,1.0,3.0,81,0.00,,,0.00,meteohub,2013-09-14 08:07:00,
2013-09-14 04:12:00,58.6,52.9,29.94,NW,311,0.0,3.0,81,0.00,,,0.00,meteohub,2013-09-14 08:12:00,
2013-09-14 04:17:00,58.5,53.1,29.95,NW,311,0.0,3.0,82,0.00,,,0.00,meteohub,2013-09-14 08:17:00,
2013-09-14 04:22:00,58.5,53.1,29.95,NW,311,1.0,2.0,82,0.00,,,0.00,meteohub,2013-09-14 08:22:00,
2013-09-14 04:27:00,58.5,53.1,29.95,NW,311,2.0,2.0,82,0.00,,,0.00,meteohub,2013-09-14 08:27:00,
2013-09-14 04:32:00,58.3,52.9,29.96,NW,311,1.0,2.0,82,0.00,,,0.00,meteohub,2013-09-14 08:32:00,
2013-09-14 04:37:00,58.3,53.1,29.96,NW,311,0.0,3.0,83,0.00,,,0.00,meteohub,2013-09-14 08:37:00,
2013-09-14 04:42:00,58.1,52.7,29.95,NW,314,3.0,3.0,82,0.00,,,0.00,meteohub,2013-09-14 08:42:00,
2013-09-14 04:47:00,58.1,52.7,29.96,NW,314,0.0,3.0,82,0.00,,,0.00,meteohub,2013-09-14 08:47:00,
2013-09-14 04:52:00,57.9,52.7,29.96,NW,314,0.0,3.0,83,0.00,,,0.00,meteohub,2013-09-14 08:52:00,
2013-09-14 04:57:00,57.9,52.7,29.96,NW,314,1.0,3.0,83,0.00,,,0.00,meteohub,2013-09-14 08:57:00,
2013-09-14 05:02:00,57.9,52.7,29.96,NW,314,0.0,2.0,83,0.00,,,0.00,meteohub,2013-09-14 09:02:00,
2013-09-14 05:07:00,57.9,52.7,29.96,NW,314,1.0,2.0,83,0.00,,,0.00,meteohub,2013-09-14 09:07:00,
2013-09-14 05:12:00,57.7,52.3,29.96,NW,314,1.0,2.0,82,0.00,,,0.00,meteohub,2013-09-14 09:12:00,
2013-09-14 05:17:00,57.7,52.7,29.96,NW,314,0.0,3.0,83,0.00,,,0.00,meteohub,2013-09-14 09:17:00,
2013-09-14 05:22:00,57.6,52.5,29.97,NW,314,0.0,3.0,83,0.00,,,0.00,meteohub,2013-09-14 09:22:00,
2013-09-14 05:27:00,57.6,52.5,29.97,NW,314,1.0,2.0,83,0.00,,,0.00,meteohub,2013-09-14 09:27:00,
2013-09-14 05:32:00,57.6,52.5,29.97,NW,314,0.0,2.0,83,0.00,,,0.00,meteohub,2013-09-14 09:32:00,
2013-09-14 05:37:00,57.4,52.0,29.97,NW,314,0.0,3.0,82,0.00,,,0.00,meteohub,2013-09-14 09:37:00,
2013-09-14 05:42:00,57.4,52.0,29.97,NW,314,0.0,3.0,82,0.00,,,0.00,meteohub,2013-09-14 09:42:00,
2013-09-14 05:47:00,57.2,51.8,29.97,NW,314,0.0,3.0,82,0.00,,,0.00,meteohub,2013-09-14 09:47:00,
2013-09-14 05:52:00,57.2,51.8,29.98,NW,314,0.0,2.0,82,0.00,,,0.00,meteohub,2013-09-14 09:52:00,
2013-09-14 05:57:00,57.0,51.6,29.98,NW,314,1.0,0.0,82,0.00,,,0.00,meteohub,2013-09-14 09:57:00,
2013-09-14 06:02:00,57.0,51.6,29.98,NW,314,2.0,3.0,82,0.00,,,0.00,meteohub,2013-09-14 10:02:00,
2013-09-14 06:07:00,57.0,51.6,29.98,NW,313,1.0,3.0,82,0.00,,,0.00,meteohub,2013-09-14 10:07:00,
2013-09-14 06:12:00,57.0,51.6,29.98,NW,317,1.0,3.0,82,0.00,,,0.00,meteohub,2013-09-14 10:12:00,
2013-09-14 06:17:00,57.0,52.0,29.99,NW,317,0.0,3.0,83,0.00,,,0.00,meteohub,2013-09-14 10:17:00,
2013-09-14 06:22:00,56.8,51.8,29.99,NW,317,1.0,3.0,83,0.00,,,0.00,meteohub,2013-09-14 10:22:00,
2013-09-14 06:27:00,56.8,52.0,29.99,NW,317,2.0,2.0,84,0.00,,,0.00,meteohub,2013-09-14 10:27:00,
2013-09-14 06:32:00,56.8,52.0,29.99,NW,317,2.0,2.0,84,0.00,,,0.00,meteohub,2013-09-14 10:32:00,
2013-09-14 06:37:00,56.7,51.8,29.99,NW,319,2.0,3.0,84,0.00,,,0.00,meteohub,2013-09-14 10:37:00,
2013-09-14 06:42:00,56.7,51.6,29.99,WNW,294,2.0,3.0,83,0.00,,,0.00,meteohub,2013-09-14 10:42:00,
2013-09-14 06:47:00,56.7,51.6,29.99,NW,317,2.0,3.0,83,0.00,,,0.00,meteohub,2013-09-14 10:47:00,
2013-09-14 06:52:00,56.7,51.8,30.00,NW,317,1.0,3.0,84,0.00,,,0.00,meteohub,2013-09-14 10:52:00,
2013-09-14 06:57:00,56.7,51.8,30.00,NW,317,2.0,3.0,84,0.00,,,0.00,meteohub,2013-09-14 10:57:00,
2013-09-14 07:02:00,56.7,51.8,30.01,NW,317,2.0,3.0,84,0.00,,,0.00,meteohub,2013-09-14 11:02:00,
2013-09-14 07:07:00,56.7,51.8,30.01,NW,317,2.0,3.0,84,0.00,,,0.00,meteohub,2013-09-14 11:07:00,
2013-09-14 07:12:00,56.7,51.8,30.01,NW,324,1.0,3.0,84,0.00,,,0.00,meteohub,2013-09-14 11:12:00,
2013-09-14 07:17:00,56.7,51.6,30.01,NW,326,3.0,4.0,83,0.00,,,0.00,meteohub,2013-09-14 11:17:00,
2013-09-14 07:22:00,56.7,51.6,30.01,NW,325,3.0,4.0,83,0.00,,,0.00,meteohub,2013-09-14 11:22:00,
2013-09-14 07:27:00,56.7,51.6,30.02,NW,321,2.0,4.0,83,0.00,,,0.00,meteohub,2013-09-14 11:27:00,
2013-09-14 07:32:00,56.7,51.3,30.02,NW,326,3.0,4.0,82,0.00,,,0.00,meteohub,2013-09-14 11:32:00,
2013-09-14 07:37:00,56.7,51.3,30.02,NW,325,2.0,4.0,82,0.00,,,0.00,meteohub,2013-09-14 11:37:00,
2013-09-14 07:42:00,56.8,51.1,30.03,NW,321,2.0,4.0,81,0.00,,,0.00,meteohub,2013-09-14 11:42:00,
2013-09-14 07:47:00,56.8,51.1,30.03,NW,321,2.0,4.0,81,0.00,,,0.00,meteohub,2013-09-14 11:47:00,
2013-09-14 07:52:00,56.8,50.7,30.03,NW,320,3.0,4.0,80,0.00,,,0.00,meteohub,2013-09-14 11:52:00,
2013-09-14 07:57:00,56.8,50.7,30.03,NW,304,2.0,4.0,80,0.00,,,0.00,meteohub,2013-09-14 11:57:00,
2013-09-14 08:02:00,56.8,50.7,30.03,NNW,329,2.0,4.0,80,0.00,,,0.00,meteohub,2013-09-14 12:02:00,
2013-09-14 08:07:00,56.8,50.4,30.03,NW,323,2.0,4.0,79,0.00,,,0.00,meteohub,2013-09-14 12:07:00,
2013-09-14 08:12:00,56.8,50.0,30.04,NW,321,2.0,4.0,78,0.00,,,0.00,meteohub,2013-09-14 12:12:00,
2013-09-14 08:17:00,56.8,49.6,30.04,NW,317,3.0,4.0,77,0.00,,,0.00,meteohub,2013-09-14 12:17:00,
2013-09-14 08:22:00,57.0,49.8,30.04,SSW,211,1.0,5.0,77,0.00,,,0.00,meteohub,2013-09-14 12:22:00,
2013-09-14 08:27:00,57.0,49.1,30.04,NW,319,4.0,5.0,75,0.00,,,0.00,meteohub,2013-09-14 12:27:00,
2013-09-14 08:32:00,57.4,49.5,30.04,NW,318,4.0,5.0,75,0.00,,,0.00,meteohub,2013-09-14 12:32:00,
2013-09-14 08:37:00,57.6,49.3,30.04,NW,317,3.0,5.0,74,0.00,,,0.00,meteohub,2013-09-14 12:37:00,
2013-09-14 08:42:00,57.7,49.1,30.04,NW,315,4.0,5.0,73,0.00,,,0.00,meteohub,2013-09-14 12:42:00,
2013-09-14 08:47:00,57.9,49.3,30.05,North,355,2.0,5.0,73,0.00,,,0.00,meteohub,2013-09-14 12:47:00,
2013-09-14 08:52:00,58.1,48.7,30.05,NW,315,3.0,5.0,71,0.00,,,0.00,meteohub,2013-09-14 12:52:00,
2013-09-14 08:57:00,58.3,48.6,30.06,NNW,338,2.0,5.0,70,0.00,,,0.00,meteohub,2013-09-14 12:57:00,
2013-09-14 09:02:00,58.5,48.4,30.06,NW,309,2.0,5.0,69,0.00,,,0.00,meteohub,2013-09-14 13:02:00,
2013-09-14 09:07:00,58.8,48.2,30.06,NW,314,3.0,6.0,68,0.00,,,0.00,meteohub,2013-09-14 13:07:00,
2013-09-14 09:12:00,59.0,48.4,30.06,NNW,327,3.0,6.0,68,0.00,,,0.00,meteohub,2013-09-14 13:12:00,
2013-09-14 09:17:00,59.2,48.6,30.07,NNW,330,3.0,6.0,68,0.00,,,0.00,meteohub,2013-09-14 13:17:00,
2013-09-14 09:22:00,59.4,48.0,30.07,NNW,327,3.0,6.0,66,0.00,,,0.00,meteohub,2013-09-14 13:22:00,
2013-09-14 09:27:00,59.4,48.4,30.07,NNW,329,4.0,6.0,67,0.00,,,0.00,meteohub,2013-09-14 13:27:00,
2013-09-14 09:32:00,59.5,48.2,30.07,NW,318,2.0,6.0,66,0.00,,,0.00,meteohub,2013-09-14 13:32:00,
2013-09-14 09:37:00,59.9,47.7,30.07,NW,315,4.0,6.0,64,0.00,,,0.00,meteohub,2013-09-14 13:37:00,
2013-09-14 09:42:00,60.1,47.8,30.08,NW,324,3.0,6.0,64,0.00,,,0.00,meteohub,2013-09-14 13:42:00,
2013-09-14 09:47:00,60.3,48.0,30.08,NW,322,4.0,6.0,64,0.00,,,0.00,meteohub,2013-09-14 13:47:00,
2013-09-14 09:52:00,60.4,48.6,30.07,NW,310,3.0,5.0,65,0.00,,,0.00,meteohub,2013-09-14 13:52:00,
2013-09-14 09:57:00,60.6,48.0,30.08,NNW,337,5.0,5.0,63,0.00,,,0.00,meteohub,2013-09-14 13:57:00,
2013-09-14 10:02:00,61.0,48.4,30.08,North,349,0.0,6.0,63,0.00,,,0.00,meteohub,2013-09-14 14:02:00,
2013-09-14 10:07:00,61.0,47.8,30.08,NW,316,3.0,6.0,62,0.00,,,0.00,meteohub,2013-09-14 14:07:00,
2013-09-14 10:12:00,61.2,48.0,30.08,WSW,242,2.0,6.0,62,0.00,,,0.00,meteohub,2013-09-14 14:12:00,
2013-09-14 10:17:00,61.3,48.6,30.08,NNW,336,1.0,6.0,63,0.00,,,0.00,meteohub,2013-09-14 14:17:00,
2013-09-14 10:22:00,61.5,48.7,30.08,NW,325,0.0,6.0,63,0.00,,,0.00,meteohub,2013-09-14 14:22:00,
2013-09-14 10:27:00,61.9,49.1,30.08,NW,322,2.0,6.0,63,0.00,,,0.00,meteohub,2013-09-14 14:27:00,
2013-09-14 10:32:00,62.2,49.1,30.08,NW,318,3.0,6.0,62,0.00,,,0.00,meteohub,2013-09-14 14:32:00,
2013-09-14 10:37:00,62.8,49.1,30.08,NW,325,5.0,6.0,61,0.00,,,0.00,meteohub,2013-09-14 14:37:00,
2013-09-14 10:42:00,63.0,48.0,30.08,NNW,336,3.0,7.0,58,0.00,,,0.00,meteohub,2013-09-14 14:42:00,
2013-09-14 10:47:00,63.1,48.2,30.08,NW,310,6.0,7.0,58,0.00,,,0.00,meteohub,2013-09-14 14:47:00,
2013-09-14 10:52:00,63.3,48.7,30.08,NNW,334,1.0,8.0,59,0.00,,,0.00,meteohub,2013-09-14 14:52:00,
2013-09-14 10:57:00,63.7,48.6,30.08,North,355,3.0,8.0,58,0.00,,,0.00,meteohub,2013-09-14 14:57:00,
2013-09-14 11:02:00,63.7,49.1,30.08,NW,317,3.0,7.0,59,0.00,,,0.00,meteohub,2013-09-14 15:02:00,
2013-09-14 11:07:00,64.2,49.6,30.08,NNW,327,2.0,5.0,59,0.00,,,0.00,meteohub,2013-09-14 15:07:00,
2013-09-14 11:12:00,64.4,49.3,30.08,NW,319,3.0,4.0,58,0.00,,,0.00,meteohub,2013-09-14 15:12:00,
2013-09-14 11:17:00,64.6,48.6,30.08,NW,325,4.0,6.0,56,0.00,,,0.00,meteohub,2013-09-14 15:17:00,
2013-09-14 11:22:00,64.2,48.7,30.09,NW,322,3.0,9.0,57,0.00,,,0.00,meteohub,2013-09-14 15:22:00,
2013-09-14 11:27:00,64.6,49.5,30.09,NNW,340,3.0,9.0,58,0.00,,,0.00,meteohub,2013-09-14 15:27:00,
2013-09-14 11:32:00,64.9,49.8,30.09,NW,322,0.0,8.0,58,0.00,,,0.00,meteohub,2013-09-14 15:32:00,
2013-09-14 11:37:00,65.1,50.0,30.09,NNW,329,5.0,5.0,58,0.00,,,0.00,meteohub,2013-09-14 15:37:00,
2013-09-14 11:42:00,65.5,49.8,30.09,NNW,329,5.0,6.0,57,0.00,,,0.00,meteohub,2013-09-14 15:42:00,
2013-09-14 11:47:00,65.1,50.0,30.09,SW,218,0.0,7.0,58,0.00,,,0.00,meteohub,2013-09-14 15:47:00,
2013-09-14 11:52:00,65.5,50.4,30.09,NNE,13,0.0,7.0,58,0.00,,,0.00,meteohub,2013-09-14 15:52:00,
2013-09-14 11:57:00,66.0,50.9,30.08,NNW,329,4.0,7.0,58,0.00,,,0.00,meteohub,2013-09-14 15:57:00,
2013-09-14 12:02:00,66.6,49.8,30.08,NW,323,4.0,6.0,55,0.00,,,0.00,meteohub,2013-09-14 16:02:00,
2013-09-14 12:07:00,66.7,50.5,30.08,NW,321,2.0,9.0,56,0.00,,,0.00,meteohub,2013-09-14 16:07:00,
2013-09-14 12:12:00,66.4,49.6,30.08,NW,314,4.0,9.0,55,0.00,,,0.00,meteohub,2013-09-14 16:12:00,
2013-09-14 12:17:00,66.6,49.8,30.08,NW,323,2.0,5.0,55,0.00,,,0.00,meteohub,2013-09-14 16:17:00,
2013-09-14 12:22:00,66.6,49.8,30.08,NNW,337,2.0,5.0,55,0.00,,,0.00,meteohub,2013-09-14 16:22:00,
2013-09-14 12:27:00,66.6,49.8,30.08,NW,321,5.0,5.0,55,0.00,,,0.00,meteohub,2013-09-14 16:27:00,
2013-09-14 12:32:00,66.9,50.2,30.08,NW,321,2.0,6.0,55,0.00,,,0.00,meteohub,2013-09-14 16:32:00,
2013-09-14 12:37:00,66.7,50.5,30.08,North,355,3.0,6.0,56,0.00,,,0.00,meteohub,2013-09-14 16:37:00,
2013-09-14 12:42:00,67.1,50.4,30.08,NW,316,2.0,5.0,55,0.00,,,0.00,meteohub,2013-09-14 16:42:00,
2013-09-14 12:47:00,67.3,50.5,30.08,NW,319,4.0,7.0,55,0.00,,,0.00,meteohub,2013-09-14 16:47:00,
2013-09-14 12:52:00,67.5,50.7,30.08,NNW,339,0.0,7.0,55,0.00,,,0.00,meteohub,2013-09-14 16:52:00,
2013-09-14 12:57:00,67.6,50.4,30.07,NW,320,3.0,7.0,54,0.00,,,0.00,meteohub,2013-09-14 16:57:00,
2013-09-14 13:02:00,68.0,51.3,30.08,NW,323,3.0,7.0,55,0.00,,,0.00,meteohub,2013-09-14 17:02:00,
2013-09-14 13:07:00,68.0,50.7,30.08,WSW,243,0.0,6.0,54,0.00,,,0.00,meteohub,2013-09-14 17:07:00,
2013-09-14 13:12:00,68.2,50.9,30.07,NNW,337,0.0,6.0,54,0.00,,,0.00,meteohub,2013-09-14 17:12:00,
2013-09-14 13:17:00,68.4,50.5,30.08,NW,324,1.0,6.0,53,0.00,,,0.00,meteohub,2013-09-14 17:17:00,
2013-09-14 13:22:00,68.2,50.9,30.07,NW,312,0.0,5.0,54,0.00,,,0.00,meteohub,2013-09-14 17:22:00,
2013-09-14 13:27:00,68.7,50.9,30.07,WSW,258,0.0,6.0,53,0.00,,,0.00,meteohub,2013-09-14 17:27:00,
2013-09-14 13:32:00,69.3,50.9,30.07,WNW,302,3.0,7.0,52,0.00,,,0.00,meteohub,2013-09-14 17:32:00,
2013-09-14 13:37:00,69.1,50.7,30.07,NW,311,0.0,7.0,52,0.00,,,0.00,meteohub,2013-09-14 17:37:00,
2013-09-14 13:42:00,69.3,50.9,30.07,WNW,302,0.0,7.0,52,0.00,,,0.00,meteohub,2013-09-14 17:42:00,
2013-09-14 13:47:00,69.3,50.9,30.07,West,269,0.0,6.0,52,0.00,,,0.00,meteohub,2013-09-14 17:47:00,
2013-09-14 13:52:00,69.3,50.4,30.06,NW,325,0.0,6.0,51,0.00,,,0.00,meteohub,2013-09-14 17:52:00,
2013-09-14 13:57:00,69.4,51.6,30.06,North,0,0.0,4.0,53,0.00,,,0.00,meteohub,2013-09-14 17:57:00,
2013-09-14 14:02:00,70.0,51.1,30.06,NNW,341,1.0,4.0,51,0.00,,,0.00,meteohub,2013-09-14 18:02:00,
2013-09-14 14:07:00,69.8,52.0,30.06,ENE,71,0.0,4.0,53,0.00,,,0.00,meteohub,2013-09-14 18:07:00,
2013-09-14 14:12:00,69.8,51.4,30.06,North,5,1.0,3.0,52,0.00,,,0.00,meteohub,2013-09-14 18:12:00,
2013-09-14 14:17:00,70.0,52.0,30.06,WSW,244,1.0,4.0,53,0.00,,,0.00,meteohub,2013-09-14 18:17:00,
2013-09-14 14:22:00,70.3,51.8,30.06,North,0,0.0,4.0,52,0.00,,,0.00,meteohub,2013-09-14 18:22:00,
2013-09-14 14:27:00,70.2,51.3,30.06,NNE,15,0.0,5.0,51,0.00,,,0.00,meteohub,2013-09-14 18:27:00,
2013-09-14 14:34:00,70.3,51.4,30.06,WNW,287,1.0,5.0,51,0.00,,,0.00,meteohub,2013-09-14 18:34:00,
2013-09-14 14:39:00,70.9,52.9,30.06,NNW,333,2.0,5.0,53,0.00,,,0.00,meteohub,2013-09-14 18:39:00,
2013-09-14 14:44:00,71.1,52.0,30.06,NNW,329,4.0,4.0,51,0.00,,,0.00,meteohub,2013-09-14 18:44:00,
2013-09-14 14:49:00,70.5,52.0,30.06,NW,309,2.0,4.0,52,0.00,,,0.00,meteohub,2013-09-14 18:49:00,
2013-09-14 14:55:00,70.3,52.9,30.06,WSW,252,2.0,5.0,54,0.00,,,0.00,meteohub,2013-09-14 18:55:00,
2013-09-14 15:00:00,70.5,52.0,30.06,NW,311,1.0,5.0,52,0.00,,,0.00,meteohub,2013-09-14 19:00:00,
2013-09-14 15:05:00,70.9,51.8,30.06,WNW,286,1.0,5.0,51,0.00,,,0.00,meteohub,2013-09-14 19:05:00,
2013-09-14 15:10:00,70.5,52.0,30.05,South,182,1.0,5.0,52,0.00,,,0.00,meteohub,2013-09-14 19:10:00,
2013-09-14 15:15:00,70.3,52.3,30.05,South,173,0.0,4.0,53,0.00,,,0.00,meteohub,2013-09-14 19:15:00,
2013-09-14 15:21:00,70.7,52.7,30.05,SSE,166,0.0,2.0,53,0.00,,,0.00,meteohub,2013-09-14 19:21:00,
2013-09-14 15:26:00,71.4,52.9,30.05,North,351,2.0,2.0,52,0.00,,,0.00,meteohub,2013-09-14 19:26:00,
2013-09-14 15:31:00,71.2,52.7,30.05,SSW,210,0.0,3.0,52,0.00,,,0.00,meteohub,2013-09-14 19:31:00,
2013-09-14 15:36:00,71.2,52.7,30.05,South,170,0.0,3.0,52,0.00,,,0.00,meteohub,2013-09-14 19:36:00,
2013-09-14 15:41:00,71.2,52.2,30.05,NW,326,1.0,4.0,51,0.00,,,0.00,meteohub,2013-09-14 19:41:00,
2013-09-14 15:46:00,71.2,52.7,30.04,NE,34,1.0,4.0,52,0.00,,,0.00,meteohub,2013-09-14 19:46:00,
2013-09-14 15:52:00,71.1,52.5,30.04,NW,304,1.0,4.0,52,0.00,,,0.00,meteohub,2013-09-14 19:52:00,
2013-09-14 15:57:00,71.1,52.5,30.04,NW,320,2.0,4.0,52,0.00,,,0.00,meteohub,2013-09-14 19:57:00,
2013-09-14 16:02:00,71.2,52.2,30.04,NW,315,2.0,4.0,51,0.00,,,0.00,meteohub,2013-09-14 20:02:00,
2013-09-14 16:07:00,71.1,52.5,30.04,WNW,297,0.0,4.0,52,0.00,,,0.00,meteohub,2013-09-14 20:07:00,
2013-09-14 16:12:00,70.9,54.0,30.05,SW,221,0.0,3.0,55,0.00,,,0.00,meteohub,2013-09-14 20:12:00,
2013-09-14 16:17:00,70.5,53.1,30.05,SSE,163,0.0,3.0,54,0.00,,,0.00,meteohub,2013-09-14 20:17:00,
2013-09-14 16:22:00,70.9,54.9,30.05,WNW,292,0.0,3.0,57,0.00,,,0.00,meteohub,2013-09-14 20:22:00,
2013-09-14 16:27:00,71.1,53.1,30.05,WNW,300,2.0,3.0,53,0.00,,,0.00,meteohub,2013-09-14 20:27:00,
2013-09-14 16:32:00,71.2,53.2,30.05,NW,308,0.0,3.0,53,0.00,,,0.00,meteohub,2013-09-14 20:32:00,
2013-09-14 16:37:00,71.4,54.0,30.05,NNW,332,1.0,3.0,54,0.00,,,0.00,meteohub,2013-09-14 20:37:00,
2013-09-14 16:42:00,71.2,52.7,30.05,NW,319,0.0,4.0,52,0.00,,,0.00,meteohub,2013-09-14 20:42:00,
2013-09-14 16:47:00,71.2,53.2,30.05,NW,314,2.0,4.0,53,0.00,,,0.00,meteohub,2013-09-14 20:47:00,
2013-09-14 16:52:00,71.4,54.0,30.05,NW,319,0.0,4.0,54,0.00,,,0.00,meteohub,2013-09-14 20:52:00,
2013-09-14 16:57:00,71.4,53.4,30.06,NW,322,1.0,4.0,53,0.00,,,0.00,meteohub,2013-09-14 20:57:00,
2013-09-14 17:02:00,71.4,54.0,30.05,NW,313,0.0,4.0,54,0.00,,,0.00,meteohub,2013-09-14 21:02:00,
2013-09-14 17:07:00,71.2,53.8,30.06,NW,313,0.0,4.0,54,0.00,,,0.00,meteohub,2013-09-14 21:07:00,
2013-09-14 17:12:00,71.1,56.5,30.06,SW,222,0.0,2.0,60,0.00,,,0.00,meteohub,2013-09-14 21:12:00,
2013-09-14 17:17:00,70.9,54.3,30.06,NW,308,0.0,2.0,56,0.00,,,0.00,meteohub,2013-09-14 21:17:00,
2013-09-14 17:22:00,71.1,55.9,30.06,NW,305,0.0,0.0,59,0.00,,,0.00,meteohub,2013-09-14 21:22:00,
2013-09-14 17:27:00,70.9,57.2,30.06,NW,306,0.0,0.0,62,0.00,,,0.00,meteohub,2013-09-14 21:27:00,
2013-09-14 17:32:00,70.3,56.3,30.06,NW,306,0.0,0.0,61,0.00,,,0.00,meteohub,2013-09-14 21:32:00,
2013-09-14 17:37:00,70.3,54.9,30.06,NW,306,0.0,0.0,58,0.00,,,0.00,meteohub,2013-09-14 21:37:00,
2013-09-14 17:42:00,70.5,57.7,30.06,NW,306,0.0,0.0,64,0.00,,,0.00,meteohub,2013-09-14 21:42:00,
2013-09-14 17:47:00,70.3,56.3,30.06,NW,306,0.0,0.0,61,0.00,,,0.00,meteohub,2013-09-14 21:47:00,
2013-09-14 17:52:00,70.2,55.6,30.06,West,264,0.0,0.0,60,0.00,,,0.00,meteohub,2013-09-14 21:52:00,
2013-09-14 17:57:00,70.0,55.0,30.07,West,266,0.0,0.0,59,0.00,,,0.00,meteohub,2013-09-14 21:57:00,
2013-09-14 18:02:00,69.8,56.7,30.07,NW,309,0.0,0.0,63,0.00,,,0.00,meteohub,2013-09-14 22:02:00,
2013-09-14 18:07:00,69.6,55.6,30.07,NW,309,0.0,0.0,61,0.00,,,0.00,meteohub,2013-09-14 22:07:00,
2013-09-14 18:12:00,69.3,56.5,30.07,NW,309,0.0,0.0,64,0.00,,,0.00,meteohub,2013-09-14 22:12:00,
2013-09-14 18:17:00,69.1,56.8,30.07,NW,309,0.0,0.0,65,0.00,,,0.00,meteohub,2013-09-14 22:17:00,
2013-09-14 18:22:00,68.5,57.6,30.07,NW,309,0.0,0.0,68,0.00,,,0.00,meteohub,2013-09-14 22:22:00,
2013-09-14 18:27:00,68.2,57.2,30.07,NW,309,0.0,0.0,68,0.00,,,0.00,meteohub,2013-09-14 22:27:00,
2013-09-14 18:32:00,68.0,57.9,30.07,NW,309,0.0,0.0,70,0.00,,,0.00,meteohub,2013-09-14 22:32:00,
2013-09-14 18:37:00,67.8,58.1,30.07,NW,309,0.0,0.0,71,0.00,,,0.00,meteohub,2013-09-14 22:37:00,
2013-09-14 18:42:00,67.6,58.3,30.07,NW,309,0.0,0.0,72,0.00,,,0.00,meteohub,2013-09-14 22:42:00,
2013-09-14 18:47:00,67.5,57.4,30.07,NW,309,0.0,0.0,70,0.00,,,0.00,meteohub,2013-09-14 22:47:00,
2013-09-14 18:51:00,67.5,56.5,30.07,NW,309,0.0,0.0,68,0.00,,,0.00,meteohub,2013-09-14 22:51:00,
2013-09-14 18:56:00,67.5,56.5,30.07,NW,309,0.0,0.0,68,0.00,,,0.00,meteohub,2013-09-14 22:56:00,
2013-09-14 19:01:00,67.3,56.8,30.07,NW,309,0.0,0.0,69,0.00,,,0.00,meteohub,2013-09-14 23:01:00,
2013-09-14 19:07:00,67.1,56.7,30.07,NW,309,0.0,0.0,69,0.00,,,0.00,meteohub,2013-09-14 23:07:00,
2013-09-14 19:12:00,66.7,55.8,30.08,NW,309,0.0,0.0,68,0.00,,,0.00,meteohub,2013-09-14 23:12:00,
2013-09-14 19:17:00,66.7,56.3,30.08,NW,309,0.0,0.0,69,0.00,,,0.00,meteohub,2013-09-14 23:17:00,
2013-09-14 19:22:00,66.4,56.3,30.08,NW,309,0.0,0.0,70,0.00,,,0.00,meteohub,2013-09-14 23:22:00,
2013-09-14 19:27:00,66.0,56.3,30.08,NW,309,0.0,0.0,71,0.00,,,0.00,meteohub,2013-09-14 23:27:00,
2013-09-14 19:32:00,65.8,56.1,30.08,NW,309,0.0,0.0,71,0.00,,,0.00,meteohub,2013-09-14 23:32:00,
2013-09-14 19:37:00,65.7,56.3,30.08,NW,309,0.0,0.0,72,0.00,,,0.00,meteohub,2013-09-14 23:37:00,
2013-09-14 19:42:00,65.3,56.5,30.08,NW,309,0.0,0.0,73,0.00,,,0.00,meteohub,2013-09-14 23:42:00,
2013-09-14 19:47:00,64.9,56.1,30.08,NW,309,0.0,0.0,73,0.00,,,0.00,meteohub,2013-09-14 23:47:00,
2013-09-14 19:52:00,64.6,56.1,30.08,NW,309,0.0,0.0,74,0.00,,,0.00,meteohub,2013-09-14 23:52:00,
2013-09-14 19:57:00,64.4,56.3,30.08,NW,309,0.0,0.0,75,0.00,,,0.00,meteohub,2013-09-14 23:57:00,
2013-09-14 20:02:00,64.2,56.1,30.08,NW,309,0.0,0.0,75,0.00,,,0.00,meteohub,2013-09-15 00:02:00,
2013-09-14 20:07:00,64.2,56.1,30.08,NW,309,0.0,0.0,75,0.00,,,0.00,meteohub,2013-09-15 00:07:00,
2013-09-14 20:12:00,64.4,56.3,30.08,NW,309,0.0,0.0,75,0.00,,,0.00,meteohub,2013-09-15 00:12:00,
2013-09-14 20:17:00,64.4,56.3,30.09,NW,309,0.0,0.0,75,0.00,,,0.00,meteohub,2013-09-15 00:17:00,
2013-09-14 20:22:00,64.4,55.9,30.09,NW,309,0.0,0.0,74,0.00,,,0.00,meteohub,2013-09-15 00:22:00,
2013-09-14 20:27:00,64.4,55.9,30.09,NW,309,0.0,0.0,74,0.00,,,0.00,meteohub,2013-09-15 00:27:00,
2013-09-14 20:32:00,64.2,56.5,30.10,NW,309,0.0,0.0,76,0.00,,,0.00,meteohub,2013-09-15 00:32:00,
2013-09-14 20:38:00,64.2,55.8,30.10,NW,309,0.0,0.0,74,0.00,,,0.00,meteohub,2013-09-15 00:38:00,
2013-09-14 20:43:00,64.0,55.6,30.11,NW,309,0.0,0.0,74,0.00,,,0.00,meteohub,2013-09-15 00:43:00,
2013-09-14 20:48:00,64.0,55.6,30.11,NW,309,0.0,0.0,74,0.00,,,0.00,meteohub,2013-09-15 00:48:00,
2013-09-14 20:53:00,63.9,55.4,30.11,NW,309,0.0,0.0,74,0.00,,,0.00,meteohub,2013-09-15 00:53:00,
2013-09-14 20:59:00,63.7,55.9,30.12,NW,309,0.0,0.0,76,0.00,,,0.00,meteohub,2013-09-15 00:59:00,
2013-09-14 21:04:00,63.7,56.3,30.12,NW,309,0.0,0.0,77,0.00,,,0.00,meteohub,2013-09-15 01:04:00,
2013-09-14 21:09:00,63.3,55.9,30.12,NW,309,0.0,0.0,77,0.00,,,0.00,meteohub,2013-09-15 01:09:00,
2013-09-14 21:14:00,63.3,55.9,30.12,NW,309,0.0,0.0,77,0.00,,,0.00,meteohub,2013-09-15 01:14:00,
2013-09-14 21:19:00,63.1,55.8,30.13,NW,309,0.0,0.0,77,0.00,,,0.00,meteohub,2013-09-15 01:19:00,
2013-09-14 21:25:00,63.1,55.8,30.13,NW,309,0.0,0.0,77,0.00,,,0.00,meteohub,2013-09-15 01:25:00,
2013-09-14 21:30:00,63.0,55.6,30.13,NW,309,0.0,0.0,77,0.00,,,0.00,meteohub,2013-09-15 01:30:00,
2013-09-14 21:35:00,63.0,55.9,30.14,NW,309,0.0,0.0,78,0.00,,,0.00,meteohub,2013-09-15 01:35:00,
2013-09-14 21:40:00,63.0,56.3,30.14,NW,309,0.0,0.0,79,0.00,,,0.00,meteohub,2013-09-15 01:40:00,
2013-09-14 21:45:00,62.8,56.1,30.14,NW,309,0.0,0.0,79,0.00,,,0.00,meteohub,2013-09-15 01:45:00,
2013-09-14 21:51:00,62.8,55.0,30.14,NW,309,0.0,0.0,76,0.00,,,0.00,meteohub,2013-09-15 01:51:00,
2013-09-14 21:56:00,62.8,55.8,30.14,NW,309,0.0,0.0,78,0.00,,,0.00,meteohub,2013-09-15 01:56:00,
2013-09-14 22:01:00,62.8,54.0,30.14,NW,309,0.0,0.0,73,0.00,,,0.00,meteohub,2013-09-15 02:01:00,
2013-09-14 22:06:00,62.8,53.6,30.14,NW,309,0.0,0.0,72,0.00,,,0.00,meteohub,2013-09-15 02:06:00,
2013-09-14 22:11:00,62.8,53.2,30.14,NW,309,0.0,0.0,71,0.00,,,0.00,meteohub,2013-09-15 02:11:00,
2013-09-14 22:17:00,62.8,53.2,30.14,NW,309,0.0,0.0,71,0.00,,,0.00,meteohub,2013-09-15 02:17:00,
2013-09-14 22:22:00,62.8,53.2,30.14,NW,309,0.0,0.0,71,0.00,,,0.00,meteohub,2013-09-15 02:22:00,
2013-09-14 22:27:00,62.8,53.2,30.14,NW,309,0.0,0.0,71,0.00,,,0.00,meteohub,2013-09-15 02:27:00,
2013-09-14 22:32:00,62.8,53.2,30.14,NW,309,0.0,0.0,71,0.00,,,0.00,meteohub,2013-09-15 02:32:00,
2013-09-14 22:37:00,62.8,53.2,30.14,NW,309,0.0,0.0,71,0.00,,,0.00,meteohub,2013-09-15 02:37:00,
2013-09-14 22:42:00,62.8,53.2,30.14,NW,309,0.0,0.0,71,0.00,,,0.00,meteohub,2013-09-15 02:42:00,
2013-09-14 22:47:00,62.4,53.6,30.14,NW,309,0.0,0.0,73,0.00,,,0.00,meteohub,2013-09-15 02:47:00,
2013-09-14 22:52:00,62.4,53.2,30.14,NW,309,0.0,0.0,72,0.00,,,0.00,meteohub,2013-09-15 02:52:00,
2013-09-14 22:57:00,62.2,52.7,30.14,NW,309,0.0,0.0,71,0.00,,,0.00,meteohub,2013-09-15 02:57:00,
2013-09-14 23:02:00,62.2,52.7,30.14,NW,309,0.0,0.0,71,0.00,,,0.00,meteohub,2013-09-15 03:02:00,
2013-09-14 23:07:00,62.2,52.7,30.15,NW,309,0.0,0.0,71,0.00,,,0.00,meteohub,2013-09-15 03:07:00,
2013-09-14 23:12:00,62.1,52.5,30.14,NW,309,0.0,0.0,71,0.00,,,0.00,meteohub,2013-09-15 03:12:00,
2013-09-14 23:17:00,62.1,52.5,30.15,NW,309,0.0,0.0,71,0.00,,,0.00,meteohub,2013-09-15 03:17:00,
2013-09-14 23:22:00,61.9,52.7,30.15,NW,309,0.0,0.0,72,0.00,,,0.00,meteohub,2013-09-15 03:22:00,
2013-09-14 23:27:00,61.9,52.7,30.15,NW,309,0.0,0.0,72,0.00,,,0.00,meteohub,2013-09-15 03:27:00,
2013-09-14 23:32:00,61.9,52.7,30.15,NW,309,0.0,0.0,72,0.00,,,0.00,meteohub,2013-09-15 03:32:00,
2013-09-14 23:37:00,61.7,52.5,30.15,NW,309,0.0,0.0,72,0.00,,,0.00,meteohub,2013-09-15 03:37:00,
2013-09-14 23:42:00,61.5,52.7,30.15,NW,309,0.0,0.0,73,0.00,,,0.00,meteohub,2013-09-15 03:42:00,
2013-09-14 23:47:00,61.3,52.7,30.15,NW,309,0.0,0.0,73,0.00,,,0.00,meteohub,2013-09-15 03:47:00,
2013-09-14 23:52:00,61.3,52.7,30.16,NW,309,0.0,0.0,73,0.00,,,0.00,meteohub,2013-09-15 03:52:00,
2013-09-14 23:57:00,61.2,52.5,30.15,NW,309,0.0,0.0,73,0.00,,,0.00,meteohub,2013-09-15 03:57:00,